Eagle Lake, FL

6:54 AM EST on February 09, 2016 (GMT -0500)
Bartow Municipal

Weather History for KBOW - December, 2012

Change the Weather History Date:

Thursday, December 20, 2012

  Actual Average Record
Temperature  
Mean Temperature 64 °F -  
Max Temperature 80 °F 75 °F 84 °F (1990)
Min Temperature 48 °F 50 °F 28 °F (1981)
Degree Days  
Heating Degree Days 1    
Growing Degree Days 14 (Base 50)    
Moisture  
Dew Point 58 °F    
Average Humidity 78    
Maximum Humidity 100    
Minimum Humidity 48    
Precipitation  
Precipitation 0.00 in - - ()
Sea Level Pressure  
Sea Level Pressure 30.04 in    
Wind  
Wind Speed 5 mph (South)    
Max Wind Speed 15 mph    
Max Gust Speed 21 mph    
Visibility 8 miles    
Events      
Averages and records for this station are not official NWS values.
T = Trace of Precipitation, MM = Missing Value Source: NWS Daily Summary

Daily Weather History Graph

Daily Weather History Graph

Search for Another Location

Airport or City:

Trip Planner

Search our weather history database for the weather conditions in past years. The results will help you decide how hot, cold, wet, or windy it might be!

Date:

Astronomy

Dec. 20, 2012 Rise Set
Actual Time 7:13 AM EST 5:36 PM EST
Civil Twilight 6:48 AM EST 6:01 PM EST
Nautical Twilight 6:18 AM EST 6:31 PM EST
Astronomical Twilight 5:50 AM EST 6:59 PM EST
Moon 12:29 PM EST (12/20) 12:26 AM EST (12/20)
Length of Visible Light 11h 13m
Length of Day
10h 22m
First Quarter, 55% of the Moon is Illuminated
Dec 20
First Quarter
Dec 28
Full
Jan 4
Last Quarter
Jan 11
New
Jan 18
First Quarter

Hourly Weather History & Observations

Time (EST) Temp. Heat Index Dew Point Humidity Pressure Visibility Wind Dir Wind Speed Gust Speed Precip Events Conditions
12:15 AM 51.8 °F - 51.8 °F 100% 30.10 in 10.0 mi Calm Calm - N/A   Clear
12:35 AM 48.2 °F - 48.2 °F 100% 30.10 in 9.0 mi East 3.5 mph - N/A   Clear
12:55 AM 51.8 °F - 51.8 °F 100% 30.10 in 8.0 mi Calm Calm - N/A   Clear
1:15 AM 48.2 °F - 46.4 °F 93% 30.09 in 10.0 mi ESE 3.5 mph - N/A   Clear
1:35 AM 50.0 °F - 48.2 °F 94% 30.09 in 8.0 mi ESE 3.5 mph - N/A   Clear
1:55 AM 51.8 °F - 51.8 °F 100% 30.08 in 4.0 mi ESE 3.5 mph - N/A   Clear
2:15 AM 51.8 °F - 51.8 °F 100% 30.08 in 6.0 mi Calm Calm - N/A   Clear
2:35 AM 50.0 °F - 48.2 °F 94% 30.08 in 9.0 mi ESE 3.5 mph - N/A   Clear
2:55 AM 48.2 °F - 48.2 °F 100% 30.08 in 10.0 mi Calm Calm - N/A   Clear
3:15 AM 53.6 °F - 53.6 °F 100% 30.08 in 8.0 mi Calm Calm - N/A   Clear
3:35 AM 50.0 °F - 48.2 °F 94% 30.08 in 10.0 mi Calm Calm - N/A   Clear
3:55 AM 51.8 °F - 51.8 °F 100% 30.08 in 10.0 mi Calm Calm - N/A   Clear
4:15 AM 50.0 °F - 50.0 °F 100% 30.07 in 9.0 mi Calm Calm - N/A   Clear
4:35 AM 53.6 °F - 53.6 °F 100% 30.07 in 5.0 mi Calm Calm - N/A   Clear
4:55 AM 51.8 °F - 51.8 °F 100% 30.07 in 6.0 mi Calm Calm - N/A   Clear
5:15 AM 51.8 °F - 51.8 °F 100% 30.07 in 10.0 mi Calm Calm - N/A   Clear
5:35 AM 51.8 °F - 51.8 °F 100% 30.07 in 9.0 mi SE 5.8 mph - N/A   Clear
5:55 AM 53.6 °F - 53.6 °F 100% 30.07 in 7.0 mi SE 3.5 mph - N/A   Clear
6:15 AM 55.4 °F - 55.4 °F 100% 30.08 in 3.0 mi Calm Calm - N/A   Clear
6:55 AM 55.4 °F - 55.4 °F 100% 30.08 in 4.0 mi ESE 3.5 mph - N/A   Partly Cloudy
7:15 AM 55.4 °F - 55.4 °F 100% 30.09 in 3.0 mi East 3.5 mph - N/A   Clear
7:55 AM 53.6 °F - 53.6 °F 100% 30.09 in 5.0 mi ESE 5.8 mph - N/A   Clear
8:15 AM 59.0 °F - 59.0 °F 100% 30.10 in 4.0 mi ESE 3.5 mph - N/A   Clear
8:35 AM 60.8 °F - 60.8 °F 100% 30.11 in 5.0 mi Calm Calm - N/A   Clear
8:55 AM 62.6 °F - 62.6 °F 100% 30.12 in 6.0 mi Calm Calm - N/A   Clear
9:15 AM 64.4 °F - 64.4 °F 100% 30.11 in 6.0 mi SE 5.8 mph - N/A   Clear
9:35 AM 68.0 °F - 64.4 °F 88% 30.11 in 9.0 mi SE 6.9 mph - N/A   Clear
9:55 AM 71.6 °F - 64.4 °F 78% 30.10 in 9.0 mi SSE 8.1 mph - N/A   Clear
10:15 AM 71.6 °F - 62.6 °F 73% 30.10 in 8.0 mi SSE 11.5 mph 18.4 mph N/A   Clear
10:35 AM 73.4 °F - 62.6 °F 69% 30.09 in 9.0 mi SSE 15.0 mph - N/A   Clear
10:55 AM 75.2 °F - 60.8 °F 61% 30.09 in 9.0 mi South 15.0 mph 19.6 mph N/A   Clear
11:15 AM 75.2 °F - 60.8 °F 61% 30.08 in 9.0 mi South 15.0 mph - N/A   Clear
11:35 AM 75.2 °F - 60.8 °F 61% 30.07 in 9.0 mi SSE 15.0 mph - N/A   Clear
12:15 PM 78.8 °F - 60.8 °F 54% 30.04 in 9.0 mi South 12.7 mph 17.3 mph N/A   Clear
12:55 PM 78.8 °F - 60.8 °F 54% 30.02 in 10.0 mi South 12.7 mph - N/A   Clear
1:15 PM 78.8 °F - 60.8 °F 54% 30.00 in 9.0 mi South 11.5 mph 16.1 mph N/A   Clear
1:35 PM 80.6 °F 81.5 °F 60.8 °F 51% 29.98 in 9.0 mi SSE 12.7 mph 18.4 mph N/A   Clear
1:55 PM 80.6 °F 81.1 °F 59.0 °F 48% 29.98 in 7.0 mi SSE 15.0 mph - N/A   Clear
2:15 PM 80.6 °F 81.1 °F 59.0 °F 48% 29.97 in 9.0 mi SSE 15.0 mph - N/A   Partly Cloudy
2:35 PM 80.6 °F 81.1 °F 59.0 °F 48% 29.97 in 10.0 mi SSE 10.4 mph - N/A   Partly Cloudy
2:55 PM 80.6 °F 81.1 °F 59.0 °F 48% 29.98 in 8.0 mi South 11.5 mph - N/A   Partly Cloudy
3:15 PM 80.6 °F 81.1 °F 59.0 °F 48% 29.97 in 10.0 mi South 11.5 mph - N/A   Partly Cloudy
3:35 PM 80.6 °F 81.1 °F 59.0 °F 48% 29.95 in 9.0 mi SSW 11.5 mph 18.4 mph N/A   Partly Cloudy
4:15 PM 80.6 °F 81.5 °F 60.8 °F 51% 29.96 in 10.0 mi South 10.4 mph - N/A   Clear
4:35 PM 80.6 °F 81.5 °F 60.8 °F 51% 29.97 in 9.0 mi SW 8.1 mph - N/A   Partly Cloudy
4:55 PM 78.8 °F - 59.0 °F 51% 29.98 in 10.0 mi SW 13.8 mph - N/A   Clear
5:15 PM 77.0 °F - 59.0 °F 54% 29.98 in 9.0 mi SW 10.4 mph - N/A   Clear
5:35 PM 75.2 °F - 59.0 °F 57% 29.98 in 9.0 mi SW 10.4 mph - N/A   Clear
5:55 PM 73.4 °F - 59.0 °F 61% 29.98 in 10.0 mi SSW 8.1 mph - N/A   Clear
6:15 PM 73.4 °F - 60.8 °F 65% 29.99 in 10.0 mi SW 9.2 mph - N/A   Clear
6:35 PM 73.4 °F - 60.8 °F 65% 30.00 in 10.0 mi SW 8.1 mph - N/A   Partly Cloudy
6:55 PM 71.6 °F - 60.8 °F 69% 30.00 in 9.0 mi SSW 8.1 mph - N/A   Partly Cloudy
7:15 PM 71.6 °F - 62.6 °F 73% 30.00 in 10.0 mi SW 10.4 mph - N/A   Clear
7:35 PM 71.6 °F - 62.6 °F 73% 29.99 in 10.0 mi SSW 11.5 mph - N/A   Clear
7:55 PM 71.6 °F - 64.4 °F 78% 29.99 in 10.0 mi SSW 10.4 mph - N/A   Partly Cloudy
8:15 PM 71.6 °F - 64.4 °F 78% 29.99 in 10.0 mi South 10.4 mph 16.1 mph N/A   Mostly Cloudy
8:35 PM 71.6 °F - 64.4 °F 78% 29.99 in 10.0 mi South 11.5 mph 18.4 mph N/A   Mostly Cloudy
8:55 PM 71.6 °F - 64.4 °F 78% 29.98 in 10.0 mi South 13.8 mph 18.4 mph N/A   Scattered Clouds
9:15 PM 71.6 °F - 64.4 °F 78% 29.98 in 10.0 mi SSW 12.7 mph 20.7 mph N/A   Partly Cloudy
9:55 PM 71.6 °F - 64.4 °F 78% 29.98 in 10.0 mi SSW 11.5 mph - N/A   Mostly Cloudy
10:15 PM 71.6 °F - 64.4 °F 78% 29.98 in 10.0 mi SSW 13.8 mph - N/A   Mostly Cloudy
10:35 PM 71.6 °F - 64.4 °F 78% 29.98 in 10.0 mi SSW 12.7 mph - N/A   Mostly Cloudy
10:55 PM 71.6 °F - 64.4 °F 78% 29.97 in 10.0 mi SSW 12.7 mph 17.3 mph N/A   Mostly Cloudy
11:15 PM 71.6 °F - 64.4 °F 78% 29.96 in 10.0 mi SSW 12.7 mph 16.1 mph N/A   Mostly Cloudy